#timestamp,LO_Frequency,Hit,StdDev 
1618129635.6,286046931.3,P
1618129655.5,286046932.4,P
1618129675.3,286046930.0,P
1618129695.2,286046927.7,Y
1618129715.9,286046997.8,P
1618129735.7,286046995.3,N
1618129755.6,286046996.2,N
1618129775.4,286046995.9,N
1618129795.2,286046993.9,N
1618129815.1,286046992.1,N
1618129816.0,286046992.1,N
1618129835.8,286046992.2,N
1618129855.7,286046992.5,N
1618129875.5,286046990.4,N
1618129895.3,286046993.2,N
1618129915.2,286046991.1,N
1618129935.0,286046991.0,N
1618129935.9,286046991.0,N
1618129955.7,286046989.3,N
1618129975.6,286046989.6,N
1618129995.4,286046987.9,N
1618130015.3,286046986.5,N
1618130035.1,286046986.0,N
1618130036.0,286046986.0,N
1618130055.8,286046984.1,N
1618130075.7,286046984.6,N
1618130095.5,286046984.5,N
1618130115.3,286046984.6,N
1618130135.2,286046983.4,N
1618130155.0,286046981.4,N
1618130155.9,286046981.4,N
1618130175.8,286046983.2,N
1618130195.6,286046981.3,N
1618130215.4,286046981.4,N
1618130235.3,286046981.8,Y
1618130255.1,286046990.5,P
1618130275.9,286046990.9,P
1618130295.7,286046990.4,P
1618130315.5,286046991.2,Y
1618130335.4,286046998.1,P
1618130355.2,286046996.7,N
1618130375.0,286046998.3,N
1618130375.9,286046998.3,N
1618130395.8,286046999.5,N
1618130415.6,286046995.3,N
1618130435.5,286046995.7,N
1618130455.3,286046994.9,N
1618130475.1,286046995.7,N
1618130495.9,286046994.5,N
1618130515.7,286046992.4,Y
1618130535.6,286046995.8,P
1618130555.4,286046995.7,P
1618130575.2,286046994.3,P
1618130595.1,286046992.7,Y
1618130596.0,286046992.7,P
1618130615.8,286046995.3,P
1618130635.6,286046993.4,P
1618130655.5,286046994.8,Y
1618130675.3,286046999.1,P
1618130695.2,286046997.0,N
1618130715.9,286046996.5,N
1618130735.7,286046995.1,N
1618130755.6,286046995.6,N
1618130775.4,286046993.8,Y
1618130795.3,286046997.4,P
1618130815.1,286046996.6,P
1618130816.0,286046996.6,P
1618130835.8,286046994.9,Y
1618130855.7,286046998.7,P
1618130875.5,286046996.6,P
1618130895.3,286046997.6,N
1618130915.2,286046997.3,Y
1618130935.0,286046998.8,P
1618130935.9,286046998.8,N
1618130955.8,286046996.9,P
1618130975.6,286046997.4,Y
1618130995.4,286046997.8,P
1618131015.3,286046995.6,P
1618131035.1,286046993.9,P
1618131055.9,286046994.0,Y
1618131075.7,286046995.3,P
1618131095.5,286046996.1,P
1618131115.4,286046996.4,P
1618131135.2,286046992.2,Y
1618131155.1,286046994.9,P
1618131156.0,286046994.9,P
1618131175.8,286046995.9,P
1618131195.6,286046994.0,Y
1618131215.5,286046999.1,P
1618131235.3,286046999.5,N
1618131255.1,286046994.9,N
1618131275.9,286046995.7,N
1618131295.7,286046993.5,Y
1618131315.6,286046997.9,P
1618131335.4,286046995.9,P
1618131355.2,286046994.2,P
1618131375.1,286046993.5,Y
1618131376.0,286046993.5,P
1618131395.8,286046997.0,N
1618131415.7,286046998.0,N
1618131435.5,286046995.9,N
1618131455.3,286046994.3,Y
1618131475.2,286046999.5,P
1618131495.0,286046994.9,P
1618131495.9,286046994.9,N
1618131515.7,286046996.0,N
1618131535.6,286046994.2,Y
1618131555.4,286046997.8,P
1618131575.3,286046996.2,P
1618131595.1,286046996.3,P
